Wind_Speed
8 8 7 6 5 5 6 9 10 11 13 16 15 14 14 14 13 14 15 15 14 11 8 9 10 9 8 11 7 6 6 6 7 9 7 9 4 10 6 4 1 5 7 6 5
8 9 8 7 7 6 5 6 6 9 11 15 17 16 15 15 16 17 15 13 13 11 14 13 13 10 14 10 8 3 1 4 5 8 7 5 10 11 8 10 3 5 5 6 5
7 9 10 9 8 8 6 6 6 6 9 12 16 18 18 17 17 17 14 12 11 16 17 16 15 15 12 6 9 7 6 7 5 9 10 9 9 9 13 16 14 10 1 2 11
7 8 11 11 9 9 7 6 7 7 7 9 14 18 18 16 17 13 12 11 17 17 15 13 12 15 11 8 9 6 6 5 7 12 12 14 16 15 14 15 11 8 11 9 7
6 7 9 12 8 8 9 7 6 8 7 8 11 14 16 17 15 14 15 19 18 15 12 8 7 6 11 8 9 7 5 6 7 11 15 18 21 19 15 13 9 9 13 18 13
5 4 7 10 8 7 9 8 8 10 10 10 12 14 16 16 17 19 19 18 16 12 9 7 3 3 4 8 5 5 5 6 7 11 18 21 20 19 18 16 7 11 17 13 12
5 6 8 9 8 8 10 11 12 13 14 15 15 16 19 19 20 18 17 19 16 11 8 5 4 2 3 2 2 3 3 5 8 14 23 20 17 21 21 15 14 15 13 17 12
7 7 8 9 10 11 13 14 15 16 15 15 17 17 17 18 17 16 15 13 11 10 9 8 5 5 2 1 4 3 6 8 9 17 22 22 19 26 23 24 19 18 16 20 9
12 10 11 12 13 14 14 15 15 16 15 15 15 15 16 15 14 13 12 11 10 9 7 5 7 5 6 4 8 10 4 6 11 15 20 19 23 25 23 20 25 16 19 21 11
16 14 14 14 15 15 14 14 13 13 13 14 13 13 12 12 12 10 9 8 6 6 7 6 6 5 6 8 13 11 3 4 12 14 22 19 19 17 22 26 26 26 20 19 25
21 19 17 17 16 14 13 12 11 10 9 8 10 12 10 9 10 9 8 7 7 7 6 8 8 8 7 11 15 9 2 2 5 7 16 18 18 21 22 26 29 28 24 12 16
24 22 21 19 17 15 12 12 11 11 11 10 10 9 10 10 9 9 9 8 8 8 6 9 10 10 12 11 8 3 2 4 3 13 19 21 17 25 22 25 26 14 9 12 11
27 25 23 21 19 17 15 14 12 11 11 12 11 12 12 12 11 11 11 10 9 8 8 10 11 10 12 7 1 5 8 8 9 11 19 22 10 9 19 20 26 23 14 10 9
30 27 24 22 20 18 16 16 13 14 13 14 13 12 13 13 12 13 13 12 10 11 11 10 9 8 3 2 5 8 10 8 7 6 5 13 7 12 11 18 19 19 13 12 15
30 29 26 23 20 19 18 17 15 14 11 13 14 16 16 13 11 14 12 12 10 7 9 10 7 5 4 3 9 6 10 3 8 11 11 17 16 15 7 8 10 17 17 5 9
28 28 26 23 22 19 16 15 13 10 5 6 8 12 14 15 13 13 13 11 9 7 8 7 4 3 1 6 10 7 16 8 7 14 18 16 16 6 9 13 15 17 19 9 5
24 24 26 24 21 20 18 13 10 8 13 11 4 7 12 17 13 12 12 10 8 6 7 5 7 3 5 4 4 12 10 3 3 11 18 23 11 12 14 29 20 22 15 8 9
23 20 23 24 23 20 15 11 12 14 15 10 11 1 10 10 12 12 8 7 8 8 8 6 6 7 9 14 6 12 3 6 8 15 20 17 12 16 24 16 35 9 17 16 11
23 20 19 19 19 16 14 17 19 13 11 12 12 1 9 10 15 12 12 10 15 14 14 8 6 4 8 8 7 4 4 4 10 12 17 18 24 27 26 27 24 17 35 16 14
23 22 22 20 18 19 23 23 18 17 18 16 13 6 10 10 12 14 14 6 10 13 9 3 4 6 3 1 6 10 10 8 11 9 10 15 20 26 20 25 20 28 29 28 15
18 20 21 21 21 23 29 20 16 18 14 16 7 8 12 9 6 10 8 4 8 9 8 9 10 10 8 9 12 18 19 14 13 13 13 16 21 23 24 21 26 30 34 21 12
17 19 21 22 24 28 30 24 22 20 12 13 18 17 14 19 15 13 12 13 16 15 16 14 9 17 16 15 17 20 17 23 19 10 15 19 24 28 30 32 31 33 23 21 21
19 21 21 23 30 33 33 27 28 25 14 19 25 24 20 19 19 22 19 18 20 23 22 12 13 15 20 25 23 21 20 17 25 18 19 24 26 30 32 30 32 32 23 19 17
22 23 24 29 35 36 35 26 25 31 27 20 25 19 16 25 28 31 25 21 30 26 23 16 16 17 17 21 24 18 14 21 21 26 25 27 28 30 31 30 31 32 21 18 22
17 16 24 32 35 39 37 28 28 31 34 28 27 27 17 18 31 24 17 23 24 18 9 13 14 15 16 17 21 20 16 20 22 22 24 24 26 28 27 25 25 23 19 16 21
19 21 25 33 38 38 37 25 26 31 34 34 35 34 31 23 18 19 21 22 21 15 13 13 15 15 15 17 15 13 21 24 26 24 27 25 23 24 24 22 24 24 19 18 24
23 23 27 34 38 39 40 39 26 28 35 33 33 33 31 32 30 29 27 28 27 24 22 16 18 18 15 17 16 16 20 24 30 32 32 31 27 26 29 28 26 22 21 19 23
Wind_Direction
236 236 242 242 237 237 233 234 228 221 217 210 207 201 196 186 177 174 179 181 180 177 184 198 188 180 170 180 154 91 344 29 8 21 6 358 47 318 337 333 226 289 339 11 4
236 232 232 237 231 229 226 229 221 219 214 209 207 203 197 189 182 191 188 189 180 177 174 172 163 174 194 180 117 81 347 76 39 21 12 30 317 16 336 339 235 313 303 342 334
242 239 233 230 231 227 223 224 218 205 209 205 205 204 200 193 194 200 195 189 178 176 176 177 166 190 192 146 97 74 69 74 76 47 10 354 338 334 315 351 348 338 86 291 315
257 251 236 222 229 224 220 217 214 199 200 199 200 202 202 197 197 199 196 178 167 171 176 182 178 205 200 134 96 93 72 79 76 43 29 2 360 2 350 335 339 339 341 280 273
262 256 227 205 221 218 214 209 206 190 188 183 188 190 188 191 191 184 174 159 166 169 171 175 175 239 251 163 116 100 84 45 38 29 16 3 352 357 2 3 6 339 328 305 219
253 224 191 198 208 206 201 195 181 168 159 145 145 156 167 170 166 161 154 151 162 165 166 158 122 320 191 121 131 105 38 351 25 24 16 360 350 348 343 339 322 351 322 314 288
227 200 195 201 205 193 183 173 161 153 145 138 135 138 143 146 147 149 151 155 167 171 156 163 111 219 124 109 277 288 32 338 9 16 0 354 356 331 336 349 343 346 339 304 298
207 183 175 171 166 161 157 153 151 148 145 144 142 143 144 146 146 153 155 163 166 171 168 182 187 214 157 290 290 298 315 336 346 3 343 340 350 356 338 337 346 335 346 310 295
200 181 168 163 156 152 152 151 150 151 151 149 151 150 152 153 158 161 161 169 179 181 182 196 220 227 224 222 253 258 305 331 2 353 325 335 8 356 342 345 335 329 321 309 269
200 189 177 169 159 155 152 148 147 151 158 160 161 158 164 165 165 166 164 176 177 202 195 210 220 217 242 240 258 273 219 43 30 5 325 347 1 0 353 347 339 319 320 317 335
202 196 189 182 177 169 163 159 157 154 160 162 166 161 169 186 179 184 191 189 197 214 205 224 225 223 229 250 262 258 62 36 36 283 305 335 342 356 338 341 318 310 315 351 6
204 201 198 196 194 191 191 195 191 193 186 189 190 190 193 194 216 211 217 213 209 218 221 248 247 244 238 232 261 146 48 122 35 345 323 318 322 319 329 332 328 343 331 349 10
205 204 201 202 204 205 207 214 208 214 218 218 213 211 213 217 222 229 231 231 233 244 250 247 253 258 252 226 234 166 166 208 272 334 310 305 311 339 346 327 339 332 344 346 359
204 204 203 203 206 208 210 222 216 225 226 232 226 232 226 222 222 225 227 229 230 244 239 232 242 232 209 285 230 192 224 269 41 25 310 307 319 359 339 322 323 338 338 327 340
203 204 204 205 208 213 218 224 226 239 240 239 243 234 229 223 215 224 221 224 224 241 253 257 254 276 268 231 240 238 264 124 352 18 0 351 17 22 8 298 307 314 306 320 326
201 203 205 208 211 219 227 239 242 251 218 190 218 232 228 221 208 214 212 210 209 219 216 201 162 90 355 273 260 241 148 92 35 354 343 351 2 15 336 330 312 285 299 308 3
194 200 206 210 213 219 222 223 249 198 168 144 146 217 207 208 189 201 196 189 197 219 211 141 77 120 78 58 321 188 165 157 5 334 337 332 356 333 347 357 323 289 268 302 9
195 199 203 207 210 211 210 206 182 183 168 116 40 45 199 192 177 195 192 201 192 175 178 123 156 118 104 63 11 177 137 334 320 325 311 353 9 331 348 34 356 197 318 276 27
193 194 192 196 201 208 196 166 188 171 131 97 43 289 215 206 174 134 127 165 170 187 210 137 176 147 91 38 24 157 213 249 285 290 312 327 343 337 343 347 351 339 338 6 27
200 201 202 204 204 177 168 176 181 175 185 127 108 103 112 134 111 116 143 166 194 209 219 192 155 214 182 198 307 296 254 243 251 267 305 313 337 321 342 339 7 11 9 353 342
187 193 197 180 176 170 167 165 168 155 167 135 148 201 178 138 69 139 140 233 222 232 261 271 261 205 231 202 234 257 264 268 253 267 288 311 316 320 338 328 331 340 358 356 352
183 184 182 180 172 177 175 174 181 172 149 169 196 223 224 177 179 228 213 229 236 253 268 274 257 236 248 244 228 246 237 244 259 229 240 292 299 300 311 321 327 329 356 354 1
187 186 181 177 179 181 171 177 188 179 164 202 214 210 228 174 183 208 226 242 248 263 246 256 257 243 247 258 249 265 257 271 277 272 261 269 283 290 298 307 313 319 342 331 332
196 191 183 180 182 185 180 190 191 192 186 205 226 216 216 198 198 216 216 224 242 254 258 260 264 258 257 249 263 252 267 283 282 277 282 263 274 281 290 295 306 324 330 324 334
200 191 194 184 186 193 192 195 212 202 198 207 219 230 225 205 221 232 223 222 246 248 279 288 261 263 269 266 258 278 288 270 271 279 280 279 275 283 297 314 318 322 320 314 325
193 190 196 190 193 200 198 201 188 194 206 209 219 225 235 232 208 229 246 261 289 304 283 241 241 249 260 260 268 274 275 282 289 292 295 291 290 294 301 313 318 326 317 307 313
196 194 197 201 203 205 210 210 206 216 219 212 219 229 237 239 240 246 254 258 276 274 274 258 251 249 252 262 265 270 276 280 289 293 295 297 299 299 299 305 305 313 323 314 305
Height
5896 5897 5897 5898 5898 5898 5898 5899 5900 5901 5902 5904 5907 5908 5910 5912 5914 5916 5917 5920 5921 5924 5926 5927 5927 5927 5926 5926 5927 5926 5928 5929 5928 5927 5926 5925 5924 5923 5924 5925 5924 5922 5922 5918 5919
5894 5895 5896 5896 5897 5898 5898 5898 5898 5899 5900 5902 5904 5906 5908 5911 5913 5914 5916 5918 5921 5924 5924 5925 5926 5927 5928 5928 5925 5927 5928 5929 5929 5927 5926 5925 5920 5920 5922 5921 5924 5923 5923 5917 5919
5892 5893 5894 5895 5895 5896 5897 5897 5897 5898 5899 5900 5902 5904 5907 5909 5911 5912 5915 5918 5921 5921 5922 5924 5925 5927 5929 5928 5926 5927 5928 5928 5928 5927 5925 5924 5923 5921 5919 5917 5919 5921 5920 5918 5917
5890 5891 5891 5893 5894 5895 5896 5896 5897 5897 5898 5898 5900 5902 5905 5908 5911 5912 5915 5918 5919 5921 5923 5924 5925 5928 5927 5927 5927 5929 5929 5928 5927 5926 5926 5924 5924 5922 5920 5919 5918 5918 5918 5918 5914
5889 5889 5889 5891 5892 5893 5894 5895 5896 5896 5898 5898 5899 5901 5904 5907 5910 5912 5915 5918 5919 5921 5923 5925 5926 5927 5928 5926 5927 5928 5928 5927 5926 5926 5925 5923 5921 5918 5919 5916 5915 5914 5912 5913 5911
5888 5888 5888 5890 5891 5892 5893 5894 5895 5896 5898 5899 5899 5901 5904 5907 5909 5912 5915 5919 5920 5922 5923 5926 5926 5929 5929 5927 5928 5927 5927 5927 5927 5925 5924 5923 5921 5917 5917 5917 5917 5917 5913 5912 5910
5887 5887 5888 5889 5890 5891 5892 5894 5895 5897 5898 5900 5901 5903 5905 5908 5910 5913 5916 5919 5921 5922 5925 5928 5927 5930 5928 5928 5929 5927 5927 5926 5926 5924 5924 5924 5924 5920 5917 5917 5915 5915 5915 5910 5908
5886 5886 5887 5888 5889 5891 5892 5894 5896 5898 5900 5902 5903 5905 5907 5910 5912 5915 5917 5920 5922 5924 5925 5926 5928 5929 5928 5929 5928 5928 5927 5926 5925 5923 5925 5924 5923 5918 5915 5914 5914 5914 5916 5912 5905
5884 5886 5887 5889 5890 5892 5894 5896 5897 5899 5901 5903 5906 5907 5909 5911 5914 5916 5917 5919 5921 5923 5924 5926 5928 5927 5928 5927 5928 5927 5926 5925 5924 5924 5924 5923 5921 5920 5915 5912 5910 5909 5908 5909 5905
5882 5885 5887 5889 5890 5892 5895 5897 5899 5901 5903 5904 5906 5910 5911 5912 5914 5916 5917 5919 5921 5923 5924 5925 5925 5925 5926 5926 5926 5926 5924 5926 5926 5926 5922 5922 5921 5921 5919 5913 5909 5905 5904 5900 5892
5879 5882 5885 5888 5890 5892 5895 5897 5901 5903 5904 5907 5908 5909 5910 5913 5913 5915 5917 5919 5920 5922 5922 5922 5924 5924 5924 5924 5924 5923 5923 5925 5926 5926 5923 5921 5921 5919 5917 5912 5904 5900 5897 5901 5898
5875 5879 5883 5886 5889 5891 5894 5896 5899 5901 5902 5904 5906 5909 5910 5911 5914 5915 5916 5918 5919 5920 5921 5922 5921 5922 5922 5922 5922 5921 5923 5924 5924 5922 5922 5920 5919 5918 5915 5910 5898 5898 5895 5897 5894
5871 5875 5879 5883 5886 5889 5892 5894 5897 5899 5902 5903 5905 5907 5909 5911 5912 5913 5914 5915 5917 5918 5919 5919 5920 5921 5920 5920 5920 5922 5922 5922 5921 5921 5920 5918 5917 5919 5917 5912 5906 5903 5899 5899 5896
5866 5871 5876 5880 5885 5887 5889 5890 5894 5896 5899 5901 5902 5904 5906 5908 5910 5910 5912 5914 5915 5915 5916 5917 5917 5917 5917 5917 5918 5920 5920 5921 5920 5920 5920 5918 5917 5918 5916 5914 5910 5906 5901 5898 5896
5862 5867 5873 5877 5881 5883 5886 5887 5891 5894 5897 5899 5899 5900 5902 5905 5908 5907 5909 5910 5912 5913 5916 5916 5914 5914 5915 5916 5916 5919 5919 5920 5920 5919 5919 5918 5917 5915 5913 5909 5908 5904 5897 5898 5896
5858 5864 5869 5874 5878 5881 5884 5886 5890 5893 5894 5896 5895 5896 5899 5901 5904 5905 5907 5908 5910 5912 5912 5913 5912 5912 5913 5914 5914 5915 5917 5918 5918 5918 5917 5915 5914 5910 5909 5909 5906 5896 5895 5897 5894
5856 5861 5866 5871 5875 5877 5880 5884 5889 5889 5892 5893 5893 5894 5895 5898 5901 5903 5904 5906 5909 5910 5911 5912 5912 5912 5913 5912 5912 5913 5915 5915 5915 5914 5914 5912 5910 5905 5907 5908 5903 5897 5895 5896 5895
5854 5858 5863 5867 5871 5875 5879 5883 5886 5886 5889 5890 5891 5892 5893 5897 5899 5900 5902 5904 5907 5908 5910 5911 5913 5912 5912 5911 5911 5914 5914 5914 5912 5913 5911 5910 5907 5906 5906 5903 5902 5895 5899 5895 5891
5852 5856 5860 5865 5869 5873 5878 5880 5883 5887 5886 5887 5890 5892 5893 5895 5897 5898 5901 5904 5905 5906 5908 5909 5911 5912 5911 5911 5913 5913 5913 5912 5912 5911 5910 5909 5907 5902 5902 5903 5903 5898 5894 5894 5891
5849 5853 5857 5862 5866 5871 5875 5878 5883 5885 5884 5884 5886 5893 5894 5895 5896 5897 5902 5905 5905 5905 5905 5907 5911 5912 5909 5910 5911 5910 5911 5911 5909 5909 5908 5906 5905 5900 5897 5899 5899 5895 5893 5891 5892
5847 5851 5855 5859 5865 5870 5873 5879 5882 5881 5883 5885 5887 5891 5892 5893 5895 5899 5902 5902 5902 5902 5904 5907 5910 5911 5909 5909 5909 5908 5908 5908 5908 5907 5905 5903 5902 5899 5898 5895 5892 5891 5889 5889 5887
5846 5850 5854 5859 5864 5867 5871 5875 5878 5880 5882 5885 5887 5888 5889 5892 5893 5898 5898 5901 5902 5902 5903 5905 5904 5907 5907 5907 5905 5903 5902 5903 5903 5904 5902 5901 5901 5898 5896 5892 5890 5890 5889 5887 5886
5845 5848 5852 5857 5860 5864 5869 5872 5874 5878 5880 5882 5883 5886 5886 5889 5893 5895 5898 5899 5899 5900 5900 5901 5901 5903 5903 5903 5904 5902 5901 5901 5901 5900 5900 5897 5897 5895 5895 5891 5888 5886 5887 5884 5883
5842 5845 5849 5853 5856 5861 5866 5870 5873 5876 5875 5879 5881 5883 5882 5885 5885 5887 5890 5893 5894 5894 5897 5899 5898 5898 5899 5898 5898 5900 5901 5900 5896 5895 5894 5893 5893 5892 5891 5888 5886 5884 5884 5882 5881
5843 5848 5850 5852 5855 5856 5860 5864 5868 5871 5871 5876 5877 5879 5881 5881 5882 5887 5888 5889 5890 5894 5897 5895 5895 5896 5895 5895 5895 5897 5895 5892 5890 5890 5888 5890 5889 5886 5885 5884 5883 5883 5883 5880 5877
5840 5842 5847 5849 5850 5853 5856 5861 5864 5865 5867 5868 5872 5875 5878 5882 5883 5884 5884 5885 5888 5888 5889 5891 5891 5892 5893 5891 5892 5893 5889 5885 5883 5884 5882 5881 5881 5880 5881 5881 5880 5879 5878 5875 5874
5836 5839 5843 5845 5847 5850 5849 5853 5861 5859 5863 5865 5868 5873 5875 5879 5881 5883 5884 5884 5885 5886 5885 5886 5886 5888 5889 5888 5889 5888 5884 5880 5878 5878 5878 5876 5875 5876 5875 5875 5874 5875 5873 5873 5869